Regional Weather Roundup
Issued by NWS

Home | Current Version | Previous Version | Graphics & Text | Print | Product List | Glossary On
Versions: 1 2 3 4 5 6 7 8 9 10 11 12 13 14 15 16 17 18 19 20 21 22 23 24 25 26 27 28 29 30 31 32 33 34 35 36 37 38 39 40 41 42 43 44 45 46 47 48 49 50
000
ASUS43 KBIS 021810
RWRND

NORTH DAKOTA REGIONAL WEATHER ROUNDUP
NATIONAL WEATHER SERVICE BISMARCK ND
1200 PM CST FRI DEC 02 2016

NOTE: "FAIR" INDICATES FEW OR NO CLOUDS BELOW 12,000 FEET WITH NO
SIGNIFICANT WEATHER AND/OR OBSTRUCTIONS TO VISIBILITY.


NDZ001>003-009>011-017-021900-
NORTHWEST NORTH DAKOTA

CITY           SKY/WX    TMP DP  RH WIND       PRES   REMARKS
WILLISTON      CLOUDY    28  23  81 SW8       30.19S WCI  20
6HR MIN TEMP:  27; 6HR MAX TEMP:  28; 6HR PCP:  0.01;

MINOT          CLOUDY    27  23  85 SE6       30.20F
MINOT AFB      CLOUDY    26  23  86 S7        30.20F WCI  19
$$

NDZ018>021-031>035-040>046-021900-
SOUTHWEST NORTH DAKOTA

CITY           SKY/WX    TMP DP  RH WIND       PRES   REMARKS
BISMARCK       CLOUDY    25  18  74 E8        30.26F WCI  16
6HR MIN TEMP:  24; 6HR MAX TEMP:  25;

DICKINSON      CLOUDY    26  23  88 S6        30.15F WCI  19
GARRISON         N/A     27  22  81 S13       30.20F WCI  16
6HR MIN TEMP:  24; 6HR MAX TEMP:  27;

HETTINGER ARPT LGT SNOW  27  24  89 S6        30.19S FOG
$$

NDZ004>008-012>016-024-026-027-054-021900-
NORTHEAST NORTH DAKOTA

CITY           SKY/WX    TMP DP  RH WIND       PRES   REMARKS
GRAND FORKS    CLOUDY    32  22  66 NW12      30.26S
GRND FRKS AFB  CLOUDY    31  22  68 N8        30.26S
DEVILS LAKE    CLOUDY    30  20  66 N5        30.24S
$$

NDZ022-023-025-028>030-036>039-047>053-021900-
SOUTHEAST NORTH DAKOTA

CITY           SKY/WX    TMP DP  RH WIND       PRES   REMARKS
FARGO          CLOUDY    30  21  69 N9        30.27S
6HR MIN TEMP:  28; 6HR MAX TEMP:  30;

JAMESTOWN      CLOUDY    28  20  71 N7        30.24F
$$





USA.gov is the U.S. government's official web portal to all federal, state and local government web resources and services.